Terug naar catalogus

STARLINK-36992

ActiefCommunicatieSSO
NORAD 68149·PAYLOAD·🇺🇸 United States

Gelanceerd Mar 13, 2026 vanaf Vandenberg Space Force Base

Loading…

Volgende Passages (komende 24 uur)

TLE

VersSource: CelesTrak SupGP

Epoch: Sep 15, 2026, 04:07 UTC

1 68149C 26049H   26258.17201389 -.00069309  00000+0 -21519-2 0  2589
2 68149  97.2838 278.2628 0001407  88.6558  78.5115 15.33468637    18

Volg STARLINK-36992 in realtime met AllMySat

Download on the App Store